User: anonymous   Login
Location: Notre Dame Regional High School Observatory
(37.3056°N, 89.6097°W)
Time: 18:08:55
(UTC-05:00)
Language:

ATLAS 3B R/B - Orbit

View from above orbital plane
View from above orbital plane
View from above satellite
View from above satellite

Ground track
Ground track

The orbit data is extracted from the following two-line orbital elements,

1 28538U 05004B   16193.07209705 0.00000020  00000-0  32086-4 0    03
2 28538  63.8228  76.5943 0170000 201.4581 158.5419 13.43085950    01
Epoch (UTC): 11 July 2016 01:43:49
Eccentricity: 0.0170000
inclination: 63.8228°
perigee height: 971 km
apogee height: 1225 km
right ascension of ascending node: 76.5943°
argument of perigee: 201.4581°
revolutions per day: 13.43085950
mean anomaly at epoch: 158.5419°
orbit number at epoch: 0

The dashed part of the orbit path shows where the satellite is in the earth's shadow,  

DLR